Regional Weather Roundup
Issued by NWS Cleveland, OH

Home | Current Version | Previous Version | Graphics & Text | Print | Product List | Glossary On
Versions: 1 2 3 4 5 6 7 8 9 10 11 12 13 14 15 16 17 18 19 20 21 22 23 24 25 26 27 28 29 30 31 32 33 34 35 36 37 38 39 40 41 42 43 44 45 46 47 48 49 50
000
ASUS41 KCLE 280810
RWRCLE
OHIO REGIONAL WEATHER ROUNDUP
NATIONAL WEATHER SERVICE CLEVELAND, OH
300 AM EST FRI NOV 28 2014

NOTE: "FAIR" INDICATES FEW OR NO CLOUDS BELOW 12,000 FEET WITH NO
SIGNIFICANT WEATHER AND/OR OBSTRUCTIONS TO VISIBILITY.

OHZ001>008-015>018-024>027-034-035-043-044-280900-
   NORTHWEST OHIO

CITY           SKY/WX    TMP DP  RH WIND       PRES   REMARKS
DEFIANCE       FLURRIES  24  18  77 NW5       30.36R WCI  18
FINDLAY        CLOUDY    26  17  68 NW5       30.33R WCI  20
TOLEDO EXPRESS PTCLDY    19  12  74 NW3       30.35R
TOLEDO EXEC    CLEAR     20   9  62 NW13      30.35R WCI   7
LIMA           CLOUDY    25  19  78 W13       30.34R WCI  14
$$

OHZ009>014-019>023-028>033-038-089-280900-
   NORTHEAST OHIO

CITY           SKY/WX    TMP DP  RH WIND       PRES   REMARKS
CLE-HOPKINS    CLOUDY    25  16  68 W12       30.31R WCI  14
CLE-LAKEFRONT  CLOUDY    29  19  66 W22       30.28R WCI  15
CUY CO. ARPT   NOT AVBL
LORAIN-ELYRIA  MOCLDY    23  13  65 NW12      30.31R WCI  12
ASHTABULA      CLOUDY    27  17  66 NW8       30.24S WCI  19
AKRON-CANTON   CLOUDY    25  21  85 W7        30.25R WCI  17
WOOSTER        LGT SNOW  25  21  85 NW17G23   30.29R FOG     WCI  12
MANSFIELD      MOCLDY    22  19  89 W5        30.29R WCI  16
YOUNGSTOWN     FLURRIES  25  21  85 W5        30.22S WCI  19
$$

OHZ042-051>053-060>062-070>072-077>081-280900-
  SOUTHWEST OHIO

CITY           SKY/WX    TMP DP  RH WIND       PRES   REMARKS
CINC-COVINGTON CLOUDY    26  16  65 CALM      30.38R
CINC-LUNKEN    MOCLDY    26  15  63 CALM      30.42R
HAMILTON       FLURRIES  27  19  72 NW5       30.41R WCI  22
DAYTON         PTCLDY    22  17  81 W7        30.37R WCI  13
WRIGHT-PAT AFB CLOUDY    24  18  77 W6        30.37R WCI  17
DAYTON GENERAL CLOUDY    25  15  66 NW6       30.37R WCI  18
WILMINGTON     CLOUDY    25  16  68 W9        30.35S WCI  15
$$

OHZ036-037-039>041-045>050-054>059-063>069-073>076-082>088-280900-
  CENTRAL AND SOUTHEAST OHIO

CITY           SKY/WX    TMP DP  RH WIND       PRES   REMARKS
COLUMBUS       CLOUDY    26  19  74 W14       30.34R WCI  14
OSU AIRPORT    CLOUDY    25  20  81 W8        30.34R WCI  16
BOLTON FIELD   FLURRIES  25  20  82 MISG      30.35
RICKENBACK AFB PTCLDY    24  19  81 W8        30.35R WCI  16
NEWARK         LGT SNOW  28  21  75 W7        30.32R WCI  21
MARION         CLOUDY    25  19  78 NW7       30.33R WCI  17
LANCASTER      CLOUDY    26  20  77 W8        30.34R WCI  18
ZANESVILLE     CLOUDY    27  20  75 W7        30.31R WCI  19
NEW PHILLY     CLOUDY    29  21  72 NW7       30.30R WCI  22
$$



USA.gov is the U.S. government's official web portal to all federal, state and local government web resources and services.